Wetbulb
66.80 69.39 72.39 72.58 71.71 72.37 73.38 72.55 72.39 72.87 72.64 71.61 70.67 70.04 69.05 68.37 68.13 67.87 67.72 67.65 67.56 67.41 67.25 67.36 67.09 66.78 66.20 65.34 65.68 65.63 66.77 67.37 67.66 66.86 66.39 67.39 68.39 69.02 67.76 65.83 65.22 65.73 67.38
68.05 69.76 72.11 72.44 72.67 73.31 73.34 72.97 72.87 72.85 72.56 70.84 69.65 68.66 68.21 68.00 67.87 67.67 67.62 67.45 67.08 66.76 66.70 66.59 66.44 66.03 65.20 65.71 65.44 65.13 65.05 65.62 64.59 64.24 63.99 65.23 69.48 69.55 68.89 66.95 67.33 66.37 67.94
67.97 69.77 70.41 72.31 73.12 73.69 73.12 73.15 73.06 72.40 71.32 69.74 68.83 68.26 68.09 67.92 67.69 67.34 66.97 66.66 66.35 66.08 66.09 66.05 65.80 65.02 65.42 65.14 65.08 64.66 64.58 64.15 64.98 65.84 66.16 67.91 67.72 68.83 69.29 69.08 69.03 69.11 68.28
68.54 69.56 69.67 72.17 73.58 73.33 73.46 72.87 72.16 71.15 69.95 68.92 68.32 67.83 67.80 67.55 67.14 66.84 66.42 65.93 65.37 65.09 65.06 65.05 64.69 64.91 65.19 64.79 64.77 65.26 65.61 66.68 67.03 66.60 65.92 65.59 65.54 67.60 67.94 67.63 68.32 68.90 69.09
68.49 69.27 70.07 72.88 73.35 73.10 73.45 72.64 71.38 70.08 69.09 68.30 67.65 67.61 67.33 66.97 66.75 66.27 65.14 64.26 63.71 63.76 64.33 64.54 64.72 65.16 65.05 64.69 64.85 67.32 66.65 65.81 64.71 65.23 64.83 65.89 65.50 65.81 66.50 65.97 65.97 67.06 68.14
67.99 69.25 70.79 72.99 73.05 72.88 72.54 71.56 70.20 69.28 68.48 67.67 67.52 67.07 66.67 66.53 66.07 64.72 63.81 63.18 62.68 63.22 64.08 64.52 64.99 65.16 64.56 64.64 65.31 66.53 66.07 65.22 64.99 64.65 63.94 64.00 63.45 65.56 66.77 65.63 65.15 65.14 65.74
67.49 69.42 71.95 72.68 72.77 72.54 71.84 70.94 69.64 68.60 67.94 67.42 67.05 66.69 66.36 65.82 64.58 63.87 63.23 62.64 62.57 62.94 63.69 64.89 65.18 64.83 64.53 64.53 64.81 65.68 65.34 63.87 63.72 63.31 62.99 63.08 63.38 65.54 67.30 66.52 66.34 66.28 65.52
67.59 70.72 71.68 71.23 71.89 71.47 70.70 70.21 69.26 67.91 67.35 66.99 66.52 66.21 65.75 64.68 63.81 63.16 62.95 62.80 62.61 62.94 64.33 64.90 64.52 64.01 64.37 64.41 64.62 64.61 64.19 62.99 62.87 62.62 62.72 63.05 64.84 65.77 67.91 66.91 66.43 66.64 66.63
69.21 70.41 71.02 70.79 70.19 69.59 69.36 68.86 68.46 67.51 67.11 66.39 65.95 65.66 64.75 64.05 63.34 63.39 63.13 62.84 62.60 62.95 63.92 63.75 63.73 64.04 64.45 64.18 64.17 64.11 63.80 62.81 63.26 61.99 61.23 62.51 64.61 64.78 66.27 65.62 64.05 63.37 63.36
69.57 69.87 69.30 68.97 68.12 67.71 67.56 67.44 66.96 66.97 66.65 66.16 65.85 64.88 63.64 63.43 63.56 63.23 63.50 63.07 62.44 62.62 63.06 63.30 63.46 64.54 64.48 63.80 63.22 63.86 63.06 62.85 62.62 61.98 61.68 63.14 64.21 64.31 63.58 63.21 63.09 62.69 62.46
67.71 67.58 67.21 66.67 65.61 66.39 66.05 65.76 66.34 66.11 65.38 64.76 63.58 62.49 60.23 60.09 60.08 59.78 61.44 63.08 63.44 63.28 62.76 62.93 63.27 64.35 63.65 62.84 62.62 62.43 61.91 62.10 61.94 61.56 61.54 63.73 62.91 63.11 62.71 62.53 62.47 62.38 62.28
65.72 65.17 65.09 65.22 64.14 64.98 64.89 65.18 64.80 64.18 62.79 61.24 60.00 57.61 56.11 55.81 57.13 59.69 60.74 62.21 63.17 63.04 62.65 61.60 61.71 61.56 60.50 60.61 61.06 60.58 61.17 60.80 60.97 61.06 61.31 63.58 62.53 62.66 62.33 62.01 61.83 61.79 61.66
65.67 64.58 64.35 63.85 63.81 63.92 63.51 62.98 62.49 60.85 59.57 57.23 54.76 53.68 53.72 55.10 56.17 56.33 56.48 56.25 56.60 55.49 56.31 56.72 55.90 56.40 57.96 58.72 59.45 59.62 59.20 59.28 60.01 60.62 61.43 63.08 62.66 62.40 62.27 61.51 61.40 61.16 61.41
64.17 63.76 63.11 62.36 62.44 62.48 62.22 61.53 60.36 58.48 56.57 53.76 53.01 52.65 53.25 52.28 52.10 52.47 52.84 52.80 52.70 52.93 53.30 54.37 54.71 55.27 56.38 57.97 59.07 58.82 58.44 58.53 59.11 59.88 60.79 61.79 61.70 61.42 61.17 60.83 60.82 60.95 60.85
62.94 62.47 61.64 61.21 61.50 60.90 60.70 58.93 57.84 56.32 54.66 53.48 51.96 52.50 52.15 51.77 51.50 52.33 52.20 52.48 52.10 52.70 53.15 53.20 54.00 54.56 55.67 56.90 58.15 58.46 57.80 57.67 58.07 58.60 59.51 60.25 61.21 59.93 60.19 60.37 60.24 60.45 60.70
62.80 61.34 61.03 60.30 60.10 59.44 58.21 56.94 55.38 54.62 53.56 53.06 51.85 52.29 51.49 52.29 51.68 52.16 51.98 51.72 51.84 52.45 52.00 52.71 53.09 53.90 54.30 55.97 56.55 57.99 57.62 57.39 57.27 57.47 57.96 58.45 59.03 59.43 59.17 59.50 59.69 59.74 60.05
62.45 61.54 59.66 58.66 57.73 57.80 56.28 54.56 53.41 53.23 52.51 51.90 51.85 51.82 51.50 51.78 52.45 52.17 51.82 51.61 51.62 51.71 51.49 51.46 51.01 51.81 52.54 53.55 55.06 56.78 57.43 56.95 56.64 55.90 56.88 56.54 55.71 55.83 57.19 58.29 58.64 58.76 58.30
62.50 60.68 59.89 58.49 56.70 55.57 53.73 51.64 51.36 50.83 51.29 51.54 51.84 52.10 51.73 51.90 52.44 52.23 52.14 52.25 52.11 52.22 52.17 51.21 50.87 50.67 51.50 52.94 53.15 54.44 54.67 54.69 53.05 54.72 55.60 55.09 53.02 52.03 53.77 54.93 55.47 56.14 57.51
62.24 60.51 59.17 57.13 54.46 52.76 50.46 50.16 50.55 50.16 50.97 51.42 51.41 52.02 52.09 52.07 52.40 52.36 51.77 51.64 51.87 51.66 51.51 50.95 49.94 50.54 50.35 50.81 51.86 53.05 52.60 53.49 52.65 51.83 52.13 51.67 51.55 51.27 51.22 51.97 52.48 54.36 55.84
60.41 60.33 57.82 54.12 52.82 51.30 49.50 49.17 49.36 49.40 50.31 50.58 50.97 51.76 52.17 52.26 52.54 52.75 51.72 50.98 50.70 50.40 49.90 50.04 49.49 49.34 50.16 50.53 50.85 49.26 49.71 51.31 50.89 50.57 50.11 50.63 50.64 50.25 50.64 50.64 51.34 52.00 53.85
60.27 60.02 55.42 52.98 51.76 50.76 49.06 48.23 48.33 48.49 48.95 49.68 50.98 51.91 52.35 52.25 52.67 52.29 50.91 50.28 49.70 49.83 49.46 49.73 49.14 48.76 48.19 50.34 49.69 48.29 48.38 49.33 49.38 49.09 49.57 49.49 49.44 49.49 49.70 50.10 49.89 50.18 50.25
59.48 58.43 55.11 52.68 51.69 51.64 51.92 49.90 50.08 49.71 49.32 50.42 51.41 52.12 52.77 52.48 52.41 51.72 50.73 49.50 48.75 48.81 49.19 49.44 49.10 47.62 47.45 48.10 48.24 47.81 45.74 46.61 48.75 48.87 48.75 47.90 47.87 49.10 47.79 48.83 48.69 48.71 49.09
57.79 55.94 54.43 52.66 52.29 52.01 51.66 50.03 49.15 49.59 49.77 49.63 49.94 51.41 52.20 52.52 52.32 51.72 50.71 49.11 48.68 48.88 48.65 48.62 48.73 48.57 46.29 46.36 46.56 46.34 42.31 44.20 45.60 47.81 48.08 47.31 47.09 47.75 46.51 48.27 47.37 47.74 47.25
57.44 55.97 54.47 53.19 52.81 52.13 51.60 51.50 49.02 49.40 48.52 49.67 50.22 51.76 51.88 52.32 51.72 51.14 49.66 48.64 48.45 48.37 47.89 47.97 47.55 47.90 47.59 45.94 46.51 46.26 46.47 46.67 43.98 42.94 47.24 47.55 46.83 46.10 45.15 46.67 46.27 45.82 44.88
57.36 55.62 54.15 53.63 53.11 53.04 52.00 51.46 49.94 50.01 50.41 50.37 50.77 50.73 50.74 50.61 50.72 49.86 48.90 48.73 48.13 48.00 47.13 47.06 47.03 46.86 46.70 45.67 45.82 45.19 45.83 44.71 45.13 44.99 42.40 44.07 45.28 45.57 44.56 45.31 44.88 44.47 43.87
56.70 55.46 54.37 53.94 53.56 52.96 52.13 51.57 50.31 49.72 49.85 49.16 49.26 48.86 48.93 49.06 49.08 49.00 48.53 48.18 47.51 46.58 45.79 45.50 46.02 45.43 45.00 44.66 45.09 45.25 44.92 44.11 42.94 42.69 41.43 41.19 40.44 42.61 43.18 44.87 44.49 44.04 43.72
MSLP
1010.59 1010.89 1011.50 1012.04 1012.55 1012.98 1013.26 1013.62 1014.02 1014.24 1014.45 1014.88 1015.25 1015.59 1015.81 1016.02 1016.22 1016.40 1016.57 1016.77 1016.94 1017.11 1017.24 1017.34 1017.45 1017.61 1017.73 1017.77 1017.84 1017.88 1017.85 1017.89 1017.98 1018.06 1018.07 1018.00 1017.91 1017.82 1017.93 1018.04 1018.14 1017.87 1017.91
1009.99 1010.51 1011.16 1011.80 1012.32 1012.72 1013.22 1013.57 1014.01 1014.27 1014.52 1015.07 1015.41 1015.65 1015.84 1016.04 1016.27 1016.49 1016.67 1016.86 1017.09 1017.30 1017.47 1017.56 1017.70 1017.86 1017.94 1017.95 1018.03 1018.07 1018.17 1018.32 1018.43 1018.46 1018.44 1018.34 1018.18 1018.09 1018.16 1018.27 1018.21 1018.05 1018.06
1010.02 1010.34 1010.96 1011.62 1012.16 1012.57 1013.13 1013.59 1014.05 1014.36 1014.70 1015.20 1015.50 1015.72 1015.91 1016.10 1016.33 1016.59 1016.83 1017.04 1017.26 1017.48 1017.65 1017.78 1017.94 1018.06 1018.14 1018.22 1018.27 1018.40 1018.45 1018.52 1018.60 1018.67 1018.62 1018.37 1018.29 1018.43 1018.44 1018.38 1018.35 1018.20 1018.12
1009.99 1010.38 1010.84 1011.51 1012.03 1012.53 1013.09 1013.56 1014.10 1014.41 1014.93 1015.29 1015.63 1015.82 1015.99 1016.23 1016.49 1016.76 1017.03 1017.28 1017.52 1017.73 1017.91 1018.06 1018.21 1018.30 1018.35 1018.43 1018.49 1018.58 1018.66 1018.72 1018.78 1018.82 1018.57 1018.62 1018.56 1018.68 1018.62 1018.69 1018.61 1018.54 1018.39
1010.17 1010.47 1010.84 1011.42 1011.94 1012.52 1013.03 1013.55 1014.09 1014.51 1015.02 1015.36 1015.69 1015.94 1016.14 1016.40 1016.67 1017.00 1017.32 1017.57 1017.78 1017.97 1018.15 1018.31 1018.41 1018.47 1018.57 1018.64 1018.76 1018.83 1018.97 1019.01 1019.04 1018.91 1018.82 1018.83 1018.74 1018.91 1018.96 1019.06 1018.96 1018.86 1018.79
1010.40 1010.58 1010.96 1011.38 1011.93 1012.48 1013.07 1013.70 1014.17 1014.61 1015.04 1015.43 1015.76 1016.09 1016.35 1016.55 1016.88 1017.18 1017.55 1017.79 1018.00 1018.17 1018.36 1018.49 1018.55 1018.71 1018.82 1018.87 1019.02 1019.16 1019.27 1019.34 1019.26 1019.19 1019.13 1019.22 1019.21 1019.15 1019.17 1019.14 1019.21 1019.17 1019.08
1010.59 1010.80 1011.06 1011.48 1011.99 1012.45 1013.12 1013.80 1014.26 1014.68 1015.11 1015.44 1015.88 1016.18 1016.54 1016.80 1017.09 1017.39 1017.66 1017.88 1018.04 1018.24 1018.46 1018.61 1018.72 1018.91 1019.03 1019.17 1019.32 1019.52 1019.61 1019.67 1019.45 1019.52 1019.53 1019.60 1019.51 1019.53 1019.41 1019.31 1019.35 1019.32 1019.31
1010.41 1010.95 1011.13 1011.77 1012.15 1012.57 1013.36 1013.94 1014.33 1014.77 1015.18 1015.58 1015.98 1016.28 1016.63 1017.02 1017.29 1017.57 1017.76 1017.96 1018.12 1018.34 1018.50 1018.72 1018.91 1019.09 1019.24 1019.42 1019.66 1019.88 1020.02 1020.04 1019.89 1019.92 1020.03 1019.96 1020.01 1019.82 1019.60 1019.67 1019.78 1019.73 1019.59
1010.27 1010.90 1011.21 1011.83 1012.25 1012.95 1013.59 1014.04 1014.43 1014.85 1015.33 1015.74 1016.09 1016.47 1016.82 1017.16 1017.40 1017.60 1017.88 1018.09 1018.22 1018.44 1018.67 1018.90 1019.03 1019.17 1019.40 1019.72 1019.99 1020.21 1020.32 1020.34 1020.12 1020.26 1020.34 1020.29 1020.33 1020.19 1020.12 1020.15 1020.19 1020.16 1020.09
1010.53 1010.90 1011.36 1011.84 1012.30 1013.07 1013.76 1014.14 1014.62 1014.93 1015.49 1015.91 1016.26 1016.70 1017.05 1017.40 1017.55 1017.77 1017.97 1018.22 1018.35 1018.54 1018.77 1019.04 1019.24 1019.39 1019.66 1019.98 1020.30 1020.51 1020.61 1020.62 1020.51 1020.63 1020.69 1020.68 1020.61 1020.48 1020.51 1020.55 1020.63 1020.74 1020.77
1010.68 1011.21 1011.51 1011.89 1012.53 1013.32 1013.82 1014.28 1014.73 1015.15 1015.64 1016.08 1016.57 1016.95 1017.34 1017.68 1017.91 1018.13 1018.22 1018.36 1018.54 1018.76 1018.98 1019.28 1019.50 1019.76 1020.09 1020.40 1020.68 1020.84 1020.84 1020.92 1020.88 1020.96 1021.00 1021.20 1021.11 1021.14 1021.18 1021.19 1021.16 1021.04 1021.05
1010.51 1011.13 1011.56 1011.97 1012.69 1013.48 1013.95 1014.39 1014.78 1015.31 1015.80 1016.29 1016.74 1017.09 1017.68 1018.09 1018.34 1018.43 1018.55 1018.59 1018.78 1019.06 1019.29 1019.63 1019.91 1020.29 1020.39 1020.63 1020.96 1021.16 1021.21 1021.34 1021.34 1021.40 1021.44 1021.52 1021.47 1021.53 1021.63 1021.59 1021.61 1021.50 1021.32
1010.21 1010.99 1011.61 1012.09 1012.73 1013.32 1013.96 1014.51 1015.06 1015.61 1016.07 1016.65 1016.98 1017.33 1017.79 1018.23 1018.58 1018.84 1019.03 1019.23 1019.31 1019.51 1019.72 1019.96 1020.21 1020.47 1020.65 1020.87 1021.21 1021.35 1021.56 1021.66 1021.76 1021.86 1022.00 1021.93 1021.86 1021.75 1021.81 1021.85 1021.82 1021.72 1021.65
1010.14 1010.74 1011.53 1012.20 1012.92 1013.34 1014.04 1014.46 1015.17 1015.71 1016.29 1016.68 1017.17 1017.38 1017.74 1018.30 1018.70 1019.03 1019.33 1019.53 1019.64 1019.73 1019.86 1020.08 1020.26 1020.62 1020.85 1021.05 1021.29 1021.60 1021.82 1021.97 1022.11 1022.32 1022.48 1022.50 1022.34 1022.28 1022.31 1022.27 1022.20 1022.09 1021.98
1009.88 1010.46 1011.23 1012.21 1012.92 1013.42 1014.02 1014.59 1015.26 1015.78 1016.32 1016.73 1017.24 1017.41 1017.74 1018.30 1018.72 1019.10 1019.59 1019.72 1019.92 1019.97 1019.99 1020.27 1020.49 1020.61 1020.96 1021.21 1021.41 1021.65 1022.01 1022.32 1022.51 1022.72 1022.84 1023.01 1022.91 1022.80 1022.69 1022.57 1022.52 1022.43 1022.21
1009.59 1010.34 1010.89 1012.03 1012.86 1013.51 1014.14 1014.76 1015.29 1015.92 1016.47 1016.89 1017.31 1017.53 1017.70 1018.15 1018.72 1019.11 1019.65 1019.98 1020.18 1020.20 1020.31 1020.44 1020.68 1020.80 1021.13 1021.35 1021.57 1021.85 1022.15 1022.47 1022.69 1022.92 1023.16 1023.38 1023.49 1023.31 1023.21 1023.05 1022.88 1022.79 1022.58
1007.93 1010.07 1010.59 1011.78 1012.62 1013.50 1014.26 1015.00 1015.42 1016.02 1016.60 1017.03 1017.35 1017.63 1017.82 1018.13 1018.59 1018.97 1019.71 1020.09 1020.41 1020.64 1020.66 1020.87 1021.09 1021.28 1021.52 1021.78 1021.82 1022.10 1022.40 1022.68 1022.92 1023.07 1023.31 1023.55 1023.69 1023.79 1023.62 1023.44 1023.29 1023.12 1022.93
1007.97 1009.31 1010.30 1011.55 1012.33 1013.21 1014.07 1014.98 1015.58 1016.09 1016.71 1017.10 1017.54 1017.71 1017.89 1018.19 1018.68 1019.06 1019.52 1020.02 1020.44 1020.65 1020.78 1020.89 1021.12 1021.36 1021.75 1021.96 1022.12 1022.40 1022.59 1022.84 1023.16 1023.42 1023.61 1023.77 1023.95 1023.94 1023.93 1023.91 1023.76 1023.56 1023.26
1008.68 1009.24 1010.01 1011.64 1012.53 1013.26 1014.15 1014.89 1015.60 1016.14 1016.52 1017.07 1017.62 1017.87 1018.02 1018.24 1018.65 1019.04 1019.53 1019.96 1020.30 1020.64 1020.82 1020.97 1021.36 1021.51 1021.88 1022.32 1022.54 1022.85 1023.03 1023.15 1023.34 1023.64 1023.84 1024.15 1024.38 1024.35 1024.31 1024.28 1024.20 1024.01 1023.72
1007.65 1009.07 1010.21 1011.48 1013.27 1013.68 1014.43 1015.15 1015.84 1016.45 1016.58 1016.95 1017.46 1017.80 1018.21 1018.44 1018.70 1019.08 1019.61 1020.12 1020.34 1020.66 1020.98 1021.16 1021.36 1021.86 1022.09 1022.40 1022.90 1023.33 1023.58 1023.70 1023.76 1023.91 1024.11 1024.35 1024.62 1024.59 1024.48 1024.39 1024.30 1024.35 1024.12
1007.63 1008.53 1010.21 1011.17 1013.09 1014.83 1015.16 1015.59 1016.12 1016.36 1016.78 1017.24 1017.32 1017.58 1018.09 1018.49 1018.73 1019.15 1019.78 1020.23 1020.60 1020.65 1020.83 1021.27 1021.67 1021.96 1022.54 1022.67 1022.89 1023.70 1024.18 1024.39 1024.42 1024.45 1024.51 1024.46 1024.72 1024.84 1024.81 1024.73 1024.62 1024.58 1024.52
1007.91 1008.81 1010.10 1010.79 1011.50 1013.32 1016.30 1015.85 1016.02 1016.38 1017.06 1017.25 1017.43 1017.45 1017.88 1018.45 1018.76 1019.10 1019.61 1020.07 1020.41 1020.88 1020.85 1021.08 1021.44 1021.98 1022.59 1022.76 1022.64 1023.22 1023.97 1024.66 1024.72 1024.85 1024.82 1024.73 1024.91 1025.03 1025.05 1025.05 1025.04 1025.02 1024.99
1008.05 1008.63 1009.04 1009.46 1011.02 1011.42 1014.80 1015.89 1016.14 1016.76 1016.90 1017.45 1017.66 1017.67 1017.95 1018.43 1018.84 1019.08 1019.51 1019.92 1020.27 1020.75 1020.92 1021.11 1021.50 1021.70 1022.35 1023.06 1022.93 1022.78 1023.45 1023.39 1024.06 1024.68 1024.92 1025.05 1025.09 1025.07 1025.17 1025.29 1025.46 1025.47 1025.30
1007.62 1008.73 1009.57 1009.99 1010.50 1010.50 1012.64 1014.53 1015.75 1016.18 1016.56 1016.84 1017.25 1017.54 1017.89 1018.41 1018.87 1019.30 1019.76 1020.16 1020.44 1020.81 1021.11 1021.24 1021.47 1021.86 1022.05 1022.62 1023.04 1023.18 1022.98 1023.08 1023.34 1024.08 1024.70 1024.94 1025.06 1025.02 1025.08 1025.17 1025.39 1025.55 1025.50
1007.25 1008.14 1009.08 1009.64 1010.34 1010.93 1011.30 1011.99 1014.42 1015.77 1016.40 1016.77 1017.15 1017.57 1017.84 1018.44 1018.88 1019.45 1019.84 1020.26 1020.80 1021.05 1021.36 1021.51 1021.61 1021.95 1022.19 1022.58 1022.84 1023.17 1023.35 1023.66 1023.65 1023.72 1024.08 1024.65 1024.80 1024.96 1025.12 1025.27 1025.44 1025.46 1025.44
1007.23 1007.85 1008.74 1009.50 1010.03 1010.63 1010.95 1010.90 1011.56 1014.06 1015.81 1016.57 1016.90 1017.44 1018.02 1018.39 1018.93 1019.40 1019.77 1020.32 1020.92 1021.22 1021.60 1021.99 1022.05 1022.33 1022.76 1022.95 1023.33 1023.15 1023.30 1023.62 1024.14 1024.28 1024.76 1025.03 1025.13 1025.06 1025.13 1025.29 1025.52 1025.49 1025.48
Wind_Speed
14 19 22 21 22 20 20 18 18 16 17 18 17 15 15 14 14 13 12 12 11 11 11 11 11 11 11 11 12 12 14 14 14 13 12 10 10 11 10 8 6 7 8
17 20 23 22 21 20 19 18 16 15 19 18 16 16 16 15 14 13 13 12 12 11 11 11 11 11 11 12 12 13 13 13 12 11 9 8 11 13 12 11 7 10 11
21 20 22 22 21 20 19 18 16 17 19 17 16 16 16 15 15 13 13 12 12 11 11 11 11 11 12 13 14 13 13 12 12 11 8 8 10 15 16 15 14 13 12
20 19 21 23 21 21 19 18 20 18 18 17 16 16 16 15 15 14 13 12 12 11 11 11 11 12 13 13 14 14 14 13 12 10 9 9 9 13 15 15 15 15 14
19 18 18 21 22 21 19 20 20 20 18 17 16 16 16 15 15 14 13 12 12 12 12 12 12 13 13 14 15 15 13 14 12 9 10 10 8 11 13 12 12 13 16
18 18 18 22 22 21 21 20 21 20 19 18 17 16 16 16 15 15 14 13 13 13 13 13 13 14 13 15 15 14 14 13 10 10 11 11 7 13 14 13 14 13 12
17 16 16 22 22 21 21 19 20 20 19 18 17 17 16 16 16 15 15 14 14 14 14 14 15 14 14 15 15 14 13 12 10 11 11 9 11 12 12 16 14 15 14
18 14 17 20 20 20 21 19 19 20 19 18 17 17 17 16 16 15 16 15 14 14 15 15 14 13 14 15 15 14 12 9 10 12 12 9 10 12 18 18 17 17 16
16 12 15 17 16 19 19 19 19 19 18 18 18 17 16 15 16 17 16 15 15 15 16 15 14 14 15 15 14 13 11 8 10 10 10 7 12 12 16 18 15 15 15
13 11 13 12 14 13 15 17 17 18 17 16 16 15 14 12 13 14 13 13 14 15 16 15 14 16 17 16 14 13 11 10 12 11 8 7 14 14 15 15 15 14 14
9 10 10 12 11 13 14 13 15 17 16 15 14 13 11 8 9 9 8 10 12 13 15 14 15 16 15 14 14 12 10 7 9 7 7 11 14 15 14 14 13 13 14
15 12 11 13 12 13 10 14 13 12 10 10 11 11 7 8 6 7 8 10 13 12 14 15 15 13 10 7 7 8 6 8 8 7 7 11 13 14 14 13 13 13 13
13 10 12 13 14 13 10 9 6 6 7 7 11 9 9 7 6 5 5 4 6 8 6 8 8 6 8 7 6 7 8 7 6 6 9 10 14 13 13 12 13 13 12
14 14 13 13 13 12 9 9 9 7 7 7 8 11 8 5 6 5 4 5 5 5 8 7 5 7 8 9 9 9 8 7 5 5 9 12 13 14 13 12 12 13 12
14 14 14 13 13 12 12 9 9 9 8 8 8 8 7 7 6 6 5 5 4 5 6 6 7 7 8 8 8 9 8 8 7 5 5 12 12 12 13 13 13 13 13
15 14 14 14 14 12 10 11 9 8 8 7 7 7 9 7 7 6 6 5 5 4 5 6 6 7 6 7 8 8 8 7 7 6 5 8 14 14 14 13 12 13 14
15 15 16 14 14 13 12 10 8 8 8 7 7 9 9 9 9 9 6 5 5 4 8 6 6 6 6 6 8 7 6 6 6 7 6 6 7 13 14 13 12 12 13
16 16 16 12 15 14 12 9 8 7 7 6 6 7 9 9 9 8 7 6 6 5 5 6 6 6 6 6 6 6 6 7 8 8 7 6 6 6 9 14 13 14 13
15 13 7 11 14 13 10 8 8 9 8 7 6 6 9 9 9 8 6 6 7 5 5 5 4 5 6 6 6 6 5 6 7 7 10 9 8 7 6 12 14 15 14
11 12 13 10 6 9 8 7 5 5 5 6 6 6 8 6 9 7 6 6 6 6 5 4 6 5 5 7 8 7 5 5 7 7 8 7 7 8 7 8 7 9 17
12 17 15 16 12 7 4 5 4 5 5 5 6 9 9 8 8 8 6 6 5 6 7 8 7 9 5 7 7 7 7 7 7 6 5 6 7 7 7 7 6 5 6
14 17 18 19 20 15 3 2 1 5 2 3 5 8 9 9 9 9 9 7 7 6 8 7 6 4 3 2 3 3 4 3 3 3 4 6 7 5 7 7 8 8 7
15 16 18 21 21 22 10 3 4 4 4 4 5 5 7 9 9 9 8 7 7 5 6 5 5 5 4 3 2 2 3 3 4 3 2 4 5 4 6 6 7 8 8
15 14 16 16 17 21 18 8 6 5 5 3 5 5 7 8 8 8 8 7 6 5 5 5 4 3 4 6 4 5 6 2 3 4 2 2 2 4 7 5 5 6 8
14 16 15 17 18 17 22 19 10 4 3 4 6 9 9 7 8 8 8 8 7 5 5 6 7 6 3 3 3 3 4 5 5 2 3 2 0 3 4 4 4 5 7
10 12 14 18 18 18 18 18 22 15 9 7 9 8 7 7 7 9 9 8 7 7 6 5 7 8 7 7 5 5 3 2 2 3 2 1 3 2 3 2 3 4 5
Wind_Direction
170 166 165 168 166 169 152 150 148 145 141 128 130 128 123 117 112 108 103 100 95 90 90 88 84 82 80 85 86 85 84 85 81 74 66 56 60 62 67 70 60 64 62
157 164 164 166 167 168 151 149 149 156 126 132 133 129 124 119 114 113 108 103 98 97 95 94 90 87 92 91 94 95 89 89 80 75 66 55 68 66 82 83 88 77 68
156 162 163 167 169 154 151 153 155 135 127 132 133 129 126 122 119 115 112 108 103 100 97 95 93 96 99 95 99 91 89 89 87 84 77 80 76 66 69 71 70 73 80
157 161 164 167 170 152 155 150 145 133 135 136 135 132 128 125 122 118 113 110 108 106 104 101 102 107 102 102 99 91 90 89 78 77 80 72 68 65 59 52 57 63 62
161 162 166 170 152 153 153 144 141 139 141 139 137 135 131 128 124 119 116 113 111 111 111 111 113 111 106 107 100 96 87 80 70 83 83 73 72 73 65 64 55 51 51
163 165 169 156 155 155 141 145 145 144 143 142 139 137 135 131 126 123 120 118 117 118 119 119 118 111 111 111 104 98 90 85 77 75 75 64 54 68 67 78 69 60 53
164 168 170 154 156 147 141 149 148 147 146 144 143 140 137 132 129 128 126 126 122 122 123 126 117 115 113 112 106 98 86 80 85 75 77 66 70 79 61 68 67 72 68
161 169 158 155 153 138 148 150 150 149 148 146 144 142 137 135 132 131 132 128 125 125 126 124 118 116 117 112 104 98 90 85 92 84 78 76 76 69 68 74 68 64 63
163 159 155 157 142 141 152 152 150 150 149 148 146 142 138 136 136 133 130 128 127 129 129 128 123 121 121 114 103 98 88 79 89 90 82 80 86 69 68 66 61 54 46
159 157 153 148 139 146 155 150 152 146 147 145 141 134 132 135 132 128 126 128 127 131 132 128 122 124 117 112 103 95 85 75 94 89 81 75 80 81 66 63 60 62 57
156 158 148 144 131 149 156 151 146 143 142 133 124 113 111 120 118 122 127 131 124 126 123 125 119 122 110 102 101 97 85 87 88 85 84 77 72 70 74 68 62 61 63
168 155 150 145 140 151 151 151 149 143 140 141 140 133 126 126 128 126 115 105 109 112 115 121 116 112 110 110 104 92 86 88 82 84 82 76 79 76 70 68 64 57 52
164 152 156 147 149 153 150 145 143 137 137 140 142 140 137 131 127 120 115 106 110 102 109 114 113 110 118 113 104 100 98 89 87 83 65 54 73 73 72 66 58 50 53
166 157 153 152 152 148 150 154 150 146 149 147 152 144 139 134 133 126 125 125 123 124 121 121 117 118 117 115 115 107 101 98 92 83 69 43 59 62 58 59 55 50 48
165 159 152 157 159 157 158 154 153 154 158 152 152 151 144 140 138 132 130 129 125 130 125 123 123 123 121 124 118 117 111 102 95 87 81 50 50 57 52 50 51 44 39
170 160 150 163 159 159 157 163 158 156 154 155 156 158 148 143 144 138 137 133 129 132 124 126 130 125 118 127 123 121 114 105 97 90 80 67 59 50 50 48 49 44 38
176 170 160 160 154 161 162 164 159 159 158 161 162 158 154 149 155 143 140 137 133 130 122 119 116 115 115 111 113 120 113 103 95 88 88 81 73 55 52 50 47 40 31
168 171 161 164 161 162 161 158 159 153 162 162 165 162 159 155 152 145 143 140 144 141 137 128 130 124 123 127 119 112 112 105 92 87 89 85 77 64 56 47 42 34 32
170 136 145 160 165 155 148 145 152 159 166 166 164 167 164 157 155 148 144 147 148 140 142 136 123 130 132 121 111 103 98 104 99 98 93 86 79 65 60 49 47 42 39
134 128 112 71 66 140 134 129 131 153 158 159 166 168 164 158 154 145 138 141 144 136 132 127 127 106 125 125 110 84 82 95 103 101 98 91 82 66 65 58 50 53 46
160 143 140 122 88 25 132 143 155 168 155 164 169 163 161 158 153 144 135 138 146 145 139 127 119 119 113 125 117 92 71 86 91 92 92 90 74 64 57 55 53 42 36
168 159 147 142 138 114 310 90 142 151 153 164 171 160 160 161 153 149 150 152 152 146 150 149 154 129 98 192 134 123 146 132 106 93 85 75 68 75 47 57 56 47 42
172 162 157 147 149 144 141 105 87 87 102 150 175 159 160 158 158 153 154 149 148 154 161 155 153 129 133 67 99 137 146 171 151 162 136 72 65 69 39 61 54 50 41
180 162 155 156 152 144 142 137 162 190 181 171 166 151 145 155 151 144 140 141 139 131 129 132 135 134 132 131 102 52 54 81 154 156 158 163 56 61 43 55 50 52 41
167 166 166 158 160 165 163 152 145 159 150 143 134 143 147 141 143 140 139 133 128 120 111 120 115 113 108 128 136 138 85 68 57 106 145 162 106 33 35 51 59 50 37
163 160 164 169 171 170 168 164 156 160 150 157 156 154 154 146 143 141 132 127 126 119 106 99 98 92 92 83 84 96 104 123 98 92 86 4 333 318 347 8 57 51 27